KLM881 ZBAA-ZYHB

Flight info

Callsign KLM881
Flight time 1h 32m
Altitude 35100
Route DOTRA B334 LELOG/K0820S1130 B334 TGO G212 RUSBO W203 PIGAM
Aircraft A320/M-L/L

Departure

Time 2026-04-16 14:42
Airport Beijing Capital International Airport (ZBAA)

Arrival

Time 2026-04-16 16:14
Airport Harbin Taiping International Airport (ZYHB)
Time Latitude Longitude Altitude Speed Heading
2026-04-16 14:19 40.07789 116.60422 124 ft 0 kts 203°
2026-04-16 14:30 40.07804 116.60431 124 ft 4 kts 203°
2026-04-16 14:30 40.07829 116.60445 124 ft 4 kts 204°
2026-04-16 14:31 40.07854 116.60459 124 ft 4 kts 201°
2026-04-16 14:31 40.07879 116.60471 124 ft 4 kts 201°
2026-04-16 14:31 40.07899 116.60481 124 ft 1 kts 199°
2026-04-16 14:31 40.07903 116.60482 124 ft 0 kts 199°
2026-04-16 14:34 40.07884 116.60474 124 ft 5 kts 199°
2026-04-16 14:34 40.07882 116.60473 124 ft 5 kts 199°
2026-04-16 14:36 40.07880 116.60455 120 ft 4 kts 296°
2026-04-16 14:36 40.07898 116.60397 123 ft 9 kts 292°
2026-04-16 14:36 40.07923 116.60317 121 ft 5 kts 292°
2026-04-16 14:37 40.07945 116.60255 121 ft 10 kts 296°
2026-04-16 14:37 40.07980 116.60152 120 ft 15 kts 294°
2026-04-16 14:37 40.08000 116.60061 124 ft 12 kts 272°
2026-04-16 14:37 40.07992 116.59939 120 ft 3 kts 264°
2026-04-16 14:38 40.07994 116.59895 125 ft 7 kts 288°
2026-04-16 14:38 40.08050 116.59859 124 ft 12 kts 352°
2026-04-16 14:38 40.08150 116.59841 121 ft 17 kts 352°
2026-04-16 14:38 40.08283 116.59822 123 ft 22 kts 353°
2026-04-16 14:39 40.08379 116.59808 122 ft 16 kts 353°
2026-04-16 14:39 40.08504 116.59788 122 ft 20 kts 354°
2026-04-16 14:39 40.08659 116.59765 123 ft 25 kts 353°
2026-04-16 14:39 40.08819 116.59739 120 ft 16 kts 353°
2026-04-16 14:40 40.08878 116.59721 126 ft 9 kts 324°
2026-04-16 14:40 40.08887 116.59628 124 ft 3 kts 265°
2026-04-16 14:40 40.08884 116.59577 121 ft 8 kts 263°
2026-04-16 14:40 40.08842 116.59504 124 ft 13 kts 198°
2026-04-16 14:41 40.08798 116.59506 124 ft 0 kts 174°
2026-04-16 14:41 40.08637 116.59530 122 ft 61 kts 172°
2026-04-16 14:41 40.07988 116.59635 123 ft 124 kts 173°
2026-04-16 14:42 40.06962 116.59802 145 ft 169 kts 172°
2026-04-16 14:42 40.05802 116.59994 799 ft 168 kts 173°
2026-04-16 14:42 40.04649 116.60173 1519 ft 167 kts 173°
2026-04-16 14:42 40.03473 116.60353 2085 ft 177 kts 174°
2026-04-16 14:43 40.02171 116.60549 2388 ft 200 kts 174°
2026-04-16 14:43 40.00704 116.60773 2727 ft 225 kts 175°
2026-04-16 14:43 39.99065 116.61022 3146 ft 250 kts 175°
2026-04-16 14:43 39.97282 116.61297 3804 ft 263 kts 175°
2026-04-16 14:44 39.95463 116.61581 4755 ft 264 kts 174°
2026-04-16 14:44 39.93639 116.61866 5714 ft 265 kts 174°
2026-04-16 14:44 39.91800 116.62152 6617 ft 268 kts 174°
2026-04-16 14:44 39.89937 116.62440 7436 ft 274 kts 174°
2026-04-16 14:45 39.88023 116.62765 7782 ft 280 kts 168°
2026-04-16 14:45 39.86246 116.63777 7875 ft 282 kts 143°
2026-04-16 14:45 39.84955 116.65674 7884 ft 284 kts 118°
2026-04-16 14:45 39.84395 116.68115 7885 ft 285 kts 93°
2026-04-16 14:46 39.84564 116.70668 7886 ft 285 kts 82°
2026-04-16 14:46 39.84859 116.73222 7885 ft 286 kts 82°
2026-04-16 14:46 39.85153 116.75786 7886 ft 286 kts 82°
2026-04-16 14:46 39.85441 116.78341 7885 ft 286 kts 82°
2026-04-16 14:47 39.85729 116.80901 7886 ft 287 kts 82°
2026-04-16 14:47 39.86015 116.83463 7885 ft 287 kts 82°
2026-04-16 14:47 39.86299 116.86025 7886 ft 286 kts 83°
2026-04-16 14:47 39.86582 116.88586 7886 ft 287 kts 83°
2026-04-16 14:48 39.86864 116.91149 7885 ft 287 kts 83°
2026-04-16 14:48 39.87144 116.93714 7885 ft 287 kts 83°
2026-04-16 14:48 39.87407 116.96111 7915 ft 288 kts 83°
2026-04-16 14:48 39.87692 116.98724 8620 ft 291 kts 83°
2026-04-16 14:49 39.87977 117.01333 9517 ft 293 kts 83°
2026-04-16 14:49 39.88271 117.03973 10285 ft 300 kts 80°
2026-04-16 14:49 39.89052 117.06563 10553 ft 322 kts 52°
2026-04-16 14:49 39.90707 117.08450 10785 ft 341 kts 27°
2026-04-16 14:50 39.92953 117.09539 11242 ft 350 kts
2026-04-16 14:50 39.95381 117.09765 11935 ft 351 kts 354°
2026-04-16 14:50 39.97809 117.09434 12703 ft 352 kts 351°
2026-04-16 14:50 40.00244 117.09063 13419 ft 355 kts 351°
2026-04-16 14:51 40.02705 117.08665 14121 ft 358 kts 350°
2026-04-16 14:51 40.05178 117.08234 14791 ft 362 kts 349°
2026-04-16 14:51 40.07678 117.07772 15414 ft 365 kts 349°
2026-04-16 14:51 40.10202 117.07291 16013 ft 370 kts 349°
2026-04-16 14:53 40.28660 117.03835 19749 ft 398 kts 348°
2026-04-16 14:53 40.31403 117.03330 20202 ft 402 kts 348°
2026-04-16 14:54 40.34187 117.02821 20674 ft 406 kts 349°
2026-04-16 14:54 40.37007 117.02392 21127 ft 411 kts 351°
2026-04-16 14:54 40.39858 117.02046 21571 ft 415 kts 352°
2026-04-16 14:54 40.42746 117.01746 22003 ft 419 kts 352°
2026-04-16 14:55 40.45661 117.01457 22419 ft 423 kts 352°
2026-04-16 14:55 40.48606 117.01162 22831 ft 427 kts 352°
2026-04-16 14:55 40.51533 117.00615 23220 ft 426 kts 343°
2026-04-16 14:55 40.54347 116.99424 23605 ft 425 kts 333°
2026-04-16 14:56 40.56952 116.97625 23980 ft 424 kts 323°
2026-04-16 14:56 40.59364 116.95409 24359 ft 425 kts 320°
2026-04-16 14:56 40.61783 116.93156 24726 ft 428 kts 320°
2026-04-16 14:56 40.64218 116.90892 25068 ft 432 kts 320°
2026-04-16 14:57 40.66679 116.88608 25422 ft 435 kts 320°
2026-04-16 14:57 40.69159 116.86308 25771 ft 438 kts 320°
2026-04-16 14:57 40.71671 116.84030 26115 ft 443 kts 324°
2026-04-16 14:57 40.74450 116.82188 26435 ft 453 kts 334°
2026-04-16 14:58 40.77483 116.80987 26756 ft 461 kts 345°
2026-04-16 14:58 40.83975 116.80612 27353 ft 475 kts 359°
2026-04-16 14:58 40.87287 116.80793 27633 ft 478 kts 359°
2026-04-16 14:59 40.90613 116.80972 27919 ft 481 kts 359°
2026-04-16 14:59 40.93964 116.81150 28184 ft 484 kts 359°
2026-04-16 14:59 40.97336 116.81327 28445 ft 487 kts 359°
2026-04-16 14:59 41.00727 116.81503 28685 ft 490 kts 359°
2026-04-16 15:00 41.04147 116.81678 28958 ft 493 kts 359°
2026-04-16 15:00 41.07568 116.81853 29201 ft 496 kts 359°
2026-04-16 15:00 41.11019 116.82030 29450 ft 498 kts 359°
2026-04-16 15:00 41.14484 116.82208 29700 ft 501 kts 359°
2026-04-16 15:01 41.17972 116.82393 29969 ft 503 kts 359°
2026-04-16 15:01 41.21454 116.82581 30329 ft 502 kts 359°
2026-04-16 15:01 41.24938 116.82767 30671 ft 502 kts 358°
2026-04-16 15:01 41.28422 116.82948 31010 ft 501 kts 358°
2026-04-16 15:02 41.31896 116.83127 31356 ft 501 kts 358°
2026-04-16 15:02 41.35366 116.83311 31682 ft 501 kts 358°
2026-04-16 15:02 41.38843 116.83499 32006 ft 501 kts 358°
2026-04-16 15:02 41.42323 116.83685 32329 ft 500 kts 358°
2026-04-16 15:03 41.45787 116.83867 32655 ft 499 kts 358°
2026-04-16 15:03 41.49247 116.84050 33035 ft 497 kts 358°
2026-04-16 15:03 41.52670 116.84234 33621 ft 489 kts 358°
2026-04-16 15:03 41.56024 116.84413 34252 ft 480 kts 358°
2026-04-16 15:04 41.59343 116.84591 34710 ft 476 kts 357°
2026-04-16 15:04 41.62645 116.85004 35022 ft 480 kts
2026-04-16 15:04 41.65860 116.86246 35101 ft 487 kts 19°
2026-04-16 15:04 41.68870 116.88350 35108 ft 492 kts 32°
2026-04-16 15:05 41.71512 116.91266 35109 ft 496 kts 45°
2026-04-16 15:05 41.73660 116.94859 35108 ft 497 kts 58°
2026-04-16 15:05 41.75265 116.98943 35110 ft 497 kts 66°
2026-04-16 15:06 41.78186 117.07334 35109 ft 499 kts 66°
2026-04-16 15:06 41.81105 117.15754 35110 ft 500 kts 66°
2026-04-16 15:07 41.84023 117.24204 35105 ft 500 kts 66°
2026-04-16 15:07 41.86929 117.32666 35099 ft 501 kts 67°
2026-04-16 15:08 41.89831 117.41139 35096 ft 501 kts 67°
2026-04-16 15:08 41.92738 117.49627 35097 ft 502 kts 67°
2026-04-16 15:09 41.95652 117.58138 35097 ft 502 kts 67°
2026-04-16 15:09 41.98555 117.66663 35095 ft 503 kts 67°
2026-04-16 15:10 42.01450 117.75199 35097 ft 503 kts 67°
2026-04-16 15:10 42.04350 117.83768 35099 ft 504 kts 68°
2026-04-16 15:11 42.07241 117.92327 35099 ft 504 kts 68°
2026-04-16 15:11 42.10130 118.00926 35100 ft 504 kts 68°
2026-04-16 15:12 42.13004 118.09521 35099 ft 504 kts 68°
2026-04-16 15:12 42.15877 118.18107 35099 ft 504 kts 68°
2026-04-16 15:13 42.18754 118.26724 35098 ft 505 kts 67°
2026-04-16 15:13 42.21771 118.35264 35100 ft 506 kts 65°
2026-04-16 15:14 42.24930 118.43723 35100 ft 507 kts 65°
2026-04-16 15:14 42.28072 118.52227 35101 ft 508 kts 66°
2026-04-16 15:15 42.31157 118.60787 35102 ft 508 kts 66°
2026-04-16 15:15 42.34227 118.69380 35102 ft 509 kts 66°
2026-04-16 15:16 42.37298 118.77978 35102 ft 509 kts 66°
2026-04-16 15:16 42.40375 118.86587 35102 ft 510 kts 66°
2026-04-16 15:17 42.43460 118.95226 35104 ft 511 kts 66°
2026-04-16 15:17 42.46541 119.03887 35109 ft 512 kts 66°
2026-04-16 15:18 42.49616 119.12578 35107 ft 513 kts 66°
2026-04-16 15:18 42.52683 119.21280 35108 ft 513 kts 66°
2026-04-16 15:19 42.55753 119.29996 35108 ft 513 kts 67°
2026-04-16 15:19 42.58825 119.38721 35109 ft 514 kts 67°
2026-04-16 15:20 42.61886 119.47473 35108 ft 514 kts 67°
2026-04-16 15:20 42.64932 119.56229 35108 ft 514 kts 68°
2026-04-16 15:21 42.67977 119.64996 35110 ft 515 kts 67°
2026-04-16 15:21 42.71019 119.73783 35110 ft 515 kts 68°
2026-04-16 15:22 42.74059 119.82588 35110 ft 515 kts 68°
2026-04-16 15:22 42.77094 119.91394 35109 ft 515 kts 68°
2026-04-16 15:23 42.80125 120.00215 35104 ft 516 kts 68°
2026-04-16 15:23 42.83151 120.09062 35100 ft 517 kts 68°
2026-04-16 15:24 42.86175 120.17953 35272 ft 521 kts 68°
2026-04-16 15:24 42.87699 120.22440 35492 ft 522 kts 68°
2026-04-16 15:24 42.89221 120.26921 35739 ft 522 kts 68°
2026-04-16 15:24 42.90743 120.31405 35989 ft 522 kts 68°
2026-04-16 15:25 42.92260 120.35887 36208 ft 522 kts 68°
2026-04-16 15:25 42.93777 120.40380 36430 ft 522 kts 68°
2026-04-16 15:25 42.95288 120.44875 36636 ft 523 kts 68°
2026-04-16 15:25 42.96803 120.49371 36895 ft 521 kts 67°
2026-04-16 15:26 42.98341 120.53831 37105 ft 520 kts 66°
2026-04-16 15:26 43.01507 120.62657 37135 ft 517 kts 65°
2026-04-16 15:27 43.04692 120.71422 37137 ft 516 kts 65°
2026-04-16 15:27 43.07837 120.80206 37137 ft 516 kts 66°
2026-04-16 15:28 43.10952 120.89034 37137 ft 516 kts 66°
2026-04-16 15:28 43.14050 120.97881 37135 ft 516 kts 66°
2026-04-16 15:29 43.17158 121.06735 37124 ft 517 kts 66°
2026-04-16 15:29 43.20278 121.15600 37130 ft 518 kts 66°
2026-04-16 15:30 43.23387 121.24496 37138 ft 518 kts 66°
2026-04-16 15:30 43.26490 121.33395 37137 ft 518 kts 66°
2026-04-16 15:31 43.29581 121.42305 37140 ft 518 kts 66°
2026-04-16 15:31 43.32661 121.51235 37139 ft 519 kts 66°
2026-04-16 15:32 43.35739 121.60182 37137 ft 519 kts 66°
2026-04-16 15:32 43.38825 121.69134 37134 ft 520 kts 66°
2026-04-16 15:33 43.41904 121.78102 37137 ft 519 kts 66°
2026-04-16 15:33 43.44964 121.87061 37137 ft 519 kts 66°
2026-04-16 15:34 43.48021 121.96044 37136 ft 520 kts 66°
2026-04-16 15:34 43.51075 122.05058 37140 ft 520 kts 66°
2026-04-16 15:35 43.54120 122.14081 37134 ft 521 kts 66°
2026-04-16 15:35 43.57624 122.22788 37138 ft 522 kts 53°
2026-04-16 15:36 43.61872 122.30886 37139 ft 522 kts 53°
2026-04-16 15:36 43.66109 122.38999 37142 ft 522 kts 53°
2026-04-16 15:37 43.70338 122.47136 37145 ft 522 kts 53°
2026-04-16 15:37 43.74561 122.55272 37142 ft 522 kts 53°
2026-04-16 15:38 43.78782 122.63431 37142 ft 522 kts 54°
2026-04-16 15:38 43.82995 122.71608 37142 ft 523 kts 54°
2026-04-16 15:39 43.87203 122.79805 37139 ft 523 kts 54°
2026-04-16 15:39 43.91414 122.88007 37139 ft 523 kts 54°
2026-04-16 15:40 43.95631 122.96212 37135 ft 524 kts 53°
2026-04-16 15:40 43.99938 123.04353 37135 ft 524 kts 52°
2026-04-16 15:41 44.04270 123.12449 37136 ft 523 kts 52°
2026-04-16 15:41 44.08577 123.20581 37131 ft 523 kts 52°
2026-04-16 15:42 44.12852 123.28743 37127 ft 523 kts 52°
2026-04-16 15:42 44.17124 123.36910 37123 ft 523 kts 52°
2026-04-16 15:43 44.21405 123.45095 37121 ft 523 kts 52°
2026-04-16 15:43 44.25678 123.53287 37122 ft 523 kts 52°
2026-04-16 15:44 44.29934 123.61501 37123 ft 523 kts 52°
2026-04-16 15:44 44.34189 123.69719 37118 ft 523 kts 52°
2026-04-16 15:45 44.38449 123.77947 37120 ft 523 kts 52°
2026-04-16 15:45 44.42699 123.86190 37116 ft 523 kts 53°
2026-04-16 15:46 44.46936 123.94443 37123 ft 523 kts 52°
2026-04-16 15:46 44.51209 124.02653 37116 ft 523 kts 52°
2026-04-16 15:47 44.56042 124.10140 37116 ft 516 kts 35°
2026-04-16 15:47 44.61975 124.15526 37068 ft 503 kts 19°
2026-04-16 15:47 44.65161 124.17570 36204 ft 509 kts 18°
2026-04-16 15:48 44.68317 124.19935 35242 ft 522 kts 27°
2026-04-16 15:48 44.71296 124.22953 34229 ft 536 kts 37°
2026-04-16 15:48 44.73989 124.26629 33159 ft 548 kts 47°
2026-04-16 15:48 44.76340 124.30878 32149 ft 554 kts 53°
2026-04-16 15:49 44.78613 124.35260 31247 ft 556 kts 53°
2026-04-16 15:49 44.80890 124.39649 30399 ft 555 kts 53°
2026-04-16 15:49 44.83158 124.44018 29594 ft 552 kts 53°
2026-04-16 15:49 44.85406 124.48347 28873 ft 546 kts 53°
2026-04-16 15:50 44.87632 124.52634 28085 ft 542 kts 53°
2026-04-16 15:50 44.89841 124.56896 27360 ft 536 kts 53°
2026-04-16 15:50 44.92018 124.61106 26706 ft 529 kts 53°
2026-04-16 15:50 44.94167 124.65275 26030 ft 522 kts 53°
2026-04-16 15:51 44.96280 124.69383 25350 ft 515 kts 53°
2026-04-16 15:51 44.98368 124.73448 24677 ft 508 kts 53°
2026-04-16 15:51 45.00426 124.77458 24029 ft 501 kts 53°
2026-04-16 15:51 45.02450 124.81408 23396 ft 495 kts 53°
2026-04-16 15:52 45.04456 124.85326 22762 ft 489 kts 53°
2026-04-16 15:52 45.06432 124.89189 22144 ft 484 kts 53°
2026-04-16 15:52 45.08383 124.93001 21365 ft 474 kts 53°
2026-04-16 15:52 45.10303 124.96756 20108 ft 469 kts 53°
2026-04-16 15:53 45.12186 125.00439 19345 ft 454 kts 53°
2026-04-16 15:53 45.13978 125.03960 18920 ft 430 kts 53°
2026-04-16 15:53 45.15684 125.07324 18430 ft 413 kts 53°
2026-04-16 15:53 45.17326 125.10569 17956 ft 397 kts 53°
2026-04-16 15:54 45.18900 125.13691 17487 ft 384 kts 53°
2026-04-16 15:54 45.20426 125.16716 17016 ft 372 kts 53°
2026-04-16 15:54 45.21905 125.19639 16565 ft 361 kts 53°
2026-04-16 15:54 45.23348 125.22489 16115 ft 352 kts 53°
2026-04-16 15:55 45.24756 125.25269 15673 ft 343 kts 53°
2026-04-16 15:55 45.26131 125.27987 15228 ft 336 kts 54°
2026-04-16 15:55 45.27476 125.30652 14795 ft 330 kts 54°
2026-04-16 15:55 45.28795 125.33268 14355 ft 324 kts 54°
2026-04-16 15:56 45.30091 125.35844 13929 ft 318 kts 54°
2026-04-16 15:56 45.31359 125.38370 13499 ft 312 kts 54°
2026-04-16 15:56 45.32607 125.40851 13071 ft 307 kts 54°
2026-04-16 15:56 45.33835 125.43293 12655 ft 301 kts 54°
2026-04-16 15:57 45.35037 125.45696 12227 ft 297 kts 54°
2026-04-16 15:57 45.36224 125.48066 11811 ft 292 kts 54°
2026-04-16 15:57 45.37391 125.50394 11383 ft 288 kts 54°
2026-04-16 15:57 45.38542 125.52693 10962 ft 284 kts 54°
2026-04-16 15:58 45.39671 125.54949 10690 ft 273 kts 54°
2026-04-16 15:58 45.40763 125.57137 10631 ft 271 kts 54°
2026-04-16 15:58 45.41853 125.59323 10529 ft 271 kts 54°
2026-04-16 15:58 45.42933 125.61503 10403 ft 270 kts 55°
2026-04-16 15:59 45.45002 125.65924 10168 ft 268 kts 57°
2026-04-16 15:59 45.46020 125.68143 10051 ft 268 kts 57°
2026-04-16 15:59 45.47043 125.70371 9774 ft 270 kts 56°
2026-04-16 16:00 45.48065 125.72589 9337 ft 267 kts 56°
2026-04-16 16:00 45.49065 125.74748 8942 ft 263 kts 56°
2026-04-16 16:00 45.50066 125.76917 8543 ft 261 kts 56°
2026-04-16 16:00 45.51052 125.79058 8158 ft 258 kts 56°
2026-04-16 16:01 45.52040 125.81202 7761 ft 260 kts 56°
2026-04-16 16:01 45.53033 125.83356 7379 ft 262 kts 56°
2026-04-16 16:01 45.54037 125.85531 6979 ft 263 kts 56°
2026-04-16 16:01 45.55041 125.87713 6587 ft 264 kts 56°
2026-04-16 16:02 45.56050 125.89908 6180 ft 265 kts 56°
2026-04-16 16:02 45.57060 125.92109 5780 ft 266 kts 56°
2026-04-16 16:02 45.58070 125.94308 5374 ft 265 kts 56°
2026-04-16 16:02 45.59080 125.96505 4980 ft 265 kts 56°
2026-04-16 16:03 45.60085 125.98698 4584 ft 265 kts 56°
2026-04-16 16:03 45.61090 126.00892 4187 ft 264 kts 56°
2026-04-16 16:03 45.62088 126.03070 3793 ft 262 kts 56°
2026-04-16 16:03 45.63081 126.05240 3462 ft 258 kts 56°
2026-04-16 16:04 45.64151 126.07180 3399 ft 242 kts 43°
2026-04-16 16:04 45.65397 126.08681 3309 ft 229 kts 38°
2026-04-16 16:04 45.66610 126.10095 3215 ft 224 kts 38°
2026-04-16 16:04 45.67805 126.11494 3124 ft 222 kts 38°
2026-04-16 16:05 45.68995 126.12884 3030 ft 220 kts 38°
2026-04-16 16:05 45.70178 126.14267 2936 ft 220 kts 38°
2026-04-16 16:05 45.71357 126.15646 2887 ft 220 kts 38°
2026-04-16 16:05 45.72538 126.17030 2835 ft 220 kts 38°
2026-04-16 16:06 45.73718 126.18417 2788 ft 220 kts 38°
2026-04-16 16:06 45.74899 126.19803 2739 ft 220 kts 38°
2026-04-16 16:06 45.76080 126.21189 2692 ft 220 kts 39°
2026-04-16 16:06 45.77256 126.22570 2641 ft 219 kts 39°
2026-04-16 16:07 45.78434 126.23954 2584 ft 219 kts 39°
2026-04-16 16:07 45.79611 126.25334 2539 ft 219 kts 39°
2026-04-16 16:07 45.80790 126.26718 2494 ft 219 kts 39°
2026-04-16 16:07 45.81949 126.28131 2448 ft 219 kts 47°
2026-04-16 16:08 45.82589 126.30045 2392 ft 217 kts 86°
2026-04-16 16:08 45.82266 126.32100 2346 ft 215 kts 124°
2026-04-16 16:08 45.81304 126.33728 2264 ft 215 kts 132°
2026-04-16 16:08 45.80339 126.35362 2167 ft 215 kts 130°
2026-04-16 16:09 45.79398 126.37010 2146 ft 214 kts 130°
2026-04-16 16:09 45.78302 126.38432 2145 ft 214 kts 149°
2026-04-16 16:09 45.76936 126.39231 2145 ft 214 kts 169°
2026-04-16 16:09 45.75461 126.39308 2147 ft 214 kts 189°
2026-04-16 16:10 45.74060 126.38655 2147 ft 213 kts 210°
2026-04-16 16:10 45.72874 126.37414 2146 ft 208 kts 220°
2026-04-16 16:10 45.71804 126.36151 2148 ft 192 kts 220°
2026-04-16 16:10 45.70827 126.34997 2164 ft 171 kts 220°
2026-04-16 16:11 45.69970 126.33988 2052 ft 152 kts 220°
2026-04-16 16:11 45.69553 126.33497 1970 ft 146 kts 220°
2026-04-16 16:11 45.69029 126.32880 1778 ft 145 kts 219°
2026-04-16 16:11 45.68278 126.31997 1646 ft 138 kts 219°
2026-04-16 16:12 45.67542 126.31130 1483 ft 137 kts 219°
2026-04-16 16:12 45.66810 126.30270 1323 ft 136 kts 219°
2026-04-16 16:12 45.66081 126.29413 1148 ft 136 kts 219°
2026-04-16 16:12 45.65355 126.28560 977 ft 135 kts 219°
2026-04-16 16:13 45.64629 126.27708 794 ft 135 kts 219°
2026-04-16 16:13 45.63904 126.26857 615 ft 134 kts 219°
2026-04-16 16:13 45.63210 126.26042 453 ft 122 kts 219°
2026-04-16 16:13 45.62624 126.25353 456 ft 98 kts 219°
2026-04-16 16:14 45.62146 126.24793 458 ft 81 kts 219°
2026-04-16 16:14 45.61860 126.24463 457 ft 31 kts 218°
2026-04-16 16:14 45.61752 126.24273 459 ft 18 kts 257°
2026-04-16 16:14 45.61747 126.24215 460 ft 0 kts 266°
2026-04-16 16:15 45.61747 126.24199 460 ft 3 kts 266°
2026-04-16 16:15 45.61746 126.24145 458 ft 8 kts 276°
2026-04-16 16:16 45.61763 126.24070 462 ft 9 kts 279°
2026-04-16 16:16 45.61725 126.23982 462 ft 13 kts 222°
2026-04-16 16:16 45.61638 126.23882 463 ft 18 kts 219°
2026-04-16 16:16 45.61555 126.23784 463 ft 17 kts 219°
2026-04-16 16:17 45.61527 126.23706 464 ft 11 kts 279°
2026-04-16 16:17 45.61574 126.23604 464 ft 10 kts 304°
2026-04-16 16:17 45.61555 126.23520 465 ft 8 kts 228°
2026-04-16 16:17 45.61565 126.23446 465 ft 9 kts 307°
2026-04-16 16:18 45.61573 126.23433 465 ft 2 kts 309°
2026-04-16 16:18 45.61579 126.23421 465 ft 0 kts 309°
2026-04-16 16:18 45.61583 126.23415 465 ft 0 kts 309°